Volver al catálogo

FENGYUN 1C DEB

ActivoSSO
NORAD 31984·DEBRIS·🇨🇳 China

Lanzado May 10, 1999 desde Taiyuan Satellite Launch Center

Loading…

Próximos Pases (próximas 24 horas)

TLE

ActualizadoSource: Space-Track

Época: Sep 12, 2026, 05:29 UTC

1 31984U 99025CPM 26255.22857679  .00000402  00000-0  19204-3 0  9991
2 31984  98.5623 257.0755 0063605 151.3641 209.1055 14.23355546982630

Sigue FENGYUN 1C DEB en tiempo real con AllMySat

Download on the App Store